Flag for Canada Weather past 2 weeks in Maple Ridge, British Columbia, Canada

Now
54 °F

Cool.


Feels Like: 54 °F
Forecast: 54 / 65 °F
Wind: No wind

Location: P. Meadows Coastal Station

Current Time: Sep 1, 2014 at 7:49:43 AM

Latest Report: Sep 1, 2014 at 7:00 AM


Visibility: N/A

Pressure: 30.06 "Hg

Humidity: 96%

Dew point: 53 °F

Location of Maple RidgeLocation

Historic Weather in Maple Ridge — Graph

°F

Maple Ridge temperature yesterday

Maximum temperature yesterday: 69 °F (at 5:00 PM)
Minimum temperature yesterday: 56 °F (at 12:00 AM)
Average temperature yesterday: 62 °F

Past Weeks' High & Low Weather Summary

 TemperatureHumidityPressure
High84 °F (Aug 26, 5:00 PM)100% (Aug 18, 5:00 AM)30.15 "Hg (Aug 18, 5:00 AM)
Low52 °F (Sep 1, 6:00 AM)32% (Aug 23, 6:00 PM)29.75 "Hg (Aug 19, 7:00 PM)
Average66 °F74%29.98 "Hg
* Reported Aug 17 6:00 AM — Sep 1 6:00 AM, Maple Ridge, Weather by CustomWeather, © 2014

Note: Actual official high and low records may vary slightly from our data, if they occured in-between our weather recording intervals... More about our weather records

Advertising

Maple Ridge weather history for previous 24 hours

 ConditionsComfort  
Time TempWeatherWind HumidityBarometerVisibility
6:00 AM
Sep 1
52 °FCool.1 mph94%30.05 "HgN/A
5:00 AM54 °FCool.1 mph91%30.05 "HgN/A
4:00 AM55 °FCool.1 mph92%30.05 "HgN/A
3:00 AM55 °FCool.1 mph93%30.05 "HgN/A
2:00 AM55 °FCool.1 mph91%30.05 "HgN/A
1:00 AM57 °FCool.1 mph89%30.05 "HgN/A
12:00 AM58 °FCool.1 mph87%30.04 "HgN/A
11:00 PM
Aug 31
58 °FCool.No wind84%30.04 "HgN/A
10:00 PM60 °FCool.2 mph79%30.03 "HgN/A
9:00 PM62 °FCool.1 mph73%30.03 "HgN/A
8:00 PM64 °FMild.1 mph67%30.03 "HgN/A
7:00 PM66 °FMild.1 mph61%30.01 "HgN/A
6:00 PM68 °FMild.6 mph53%30.01 "HgN/A
5:00 PM69 °FMild.7 mph53%30.01 "HgN/A
4:00 PM69 °FMild.2 mph56%30.02 "HgN/A
3:00 PM67 °FMild.2 mph69%30.03 "HgN/A
2:00 PM65 °FMild.5 mph77%30.04 "HgN/A
1:00 PM65 °FMild.1 mph71%30.05 "HgN/A
12:00 PM63 °FMild.1 mph81%30.05 "HgN/A
11:00 AM61 °FCool.2 mph85%30.04 "HgN/A
10:00 AM60 °FCool.3 mph87%30.03 "HgN/A
9:00 AM58 °FCool.3 mph94%30.02 "HgN/A
8:00 AM56 °FCool.3 mph95%30.01 "HgN/A
7:00 AM58 °FCool.1 mph85%30.00 "HgN/A
Weather by CustomWeather, © 2014

See weather overviewHow to use our weather pages